Vorticity
4 24 20 3 16 20 7 26 17 14 21 15 12 18 13 10 15 10 3 13 -8 8 9 9 7 8 9 10 9 8 8 8 9 9 7 5 6 7 8 8 8 9 9
9 27 13 13 6 16 19 14 17 23 22 14 6 11 12 12 6 10 3 1 15 6 7 6 8 7 9 9 8 7 8 9 10 8 6 6 7 7 6 8 8 9 10
7 21 14 15 10 8 -5 29 20 25 16 13 11 25 12 4 10 18 11 13 6 7 5 7 7 9 11 9 8 8 8 11 9 7 7 7 6 6 7 8 9 9 9
6 14 24 21 16 17 17 8 10 24 20 10 10 5 17 0 12 12 8 6 6 6 5 7 8 9 9 7 8 7 9 8 8 8 8 7 7 7 7 9 10 10 9
16 5 13 18 8 15 35 7 19 14 4 19 19 27 5 11 19 7 2 7 6 4 6 8 6 7 9 10 9 10 7 8 7 7 7 7 7 8 9 8 10 10 9
33 -1 29 12 21 9 39 12 22 13 31 38 26 24 19 16 4 4 6 7 4 4 4 4 7 6 9 9 7 7 9 9 8 7 8 8 6 9 8 10 9 9 8
46 34 13 38 29 38 36 28 25 19 19 30 27 17 12 1 8 6 4 6 4 3 4 6 5 8 8 8 8 7 7 8 6 6 8 6 8 9 9 10 9 8 9
13 42 10 36 16 10 26 22 21 25 21 17 11 2 6 5 5 6 6 5 5 4 5 3 9 8 9 8 8 8 6 7 9 10 8 8 9 9 9 8 8 8 8
19 63 19 13 14 18 15 10 15 17 16 9 12 12 -1 2 5 2 -0 1 4 3 5 9 6 10 12 12 7 8 8 7 8 7 7 8 8 8 8 8 8 8 8
29 44 20 22 23 18 9 6 16 10 9 8 3 7 9 14 11 10 15 6 15 16 14 10 14 1 -6 11 7 7 8 8 8 8 9 8 8 7 8 8 8 8 9
-8 42 27 22 18 11 13 14 10 11 8 7 7 7 10 13 15 11 8 7 10 14 15 19 20 19 13 7 7 6 11 5 8 12 4 7 7 8 8 8 8 9 9
14 -3 51 17 12 10 7 4 4 9 16 10 8 8 10 7 7 7 9 13 13 10 10 15 17 5 21 8 7 9 2 10 10 3 12 5 8 8 9 8 9 10 10
24 12 -5 44 11 8 6 7 9 8 3 4 7 8 8 9 7 5 7 8 8 11 16 14 18 16 6 7 10 8 14 9 4 11 4 6 5 10 9 9 9 10 9
13 35 14 -7 19 5 3 11 7 5 6 7 7 7 4 6 5 7 10 11 12 13 12 16 11 11 7 8 12 7 2 1 11 -2 8 5 9 11 9 9 10 9 9
21 11 34 11 1 5 28 8 10 1 8 10 10 3 5 10 10 9 9 11 11 12 14 16 12 9 8 8 -3 4 11 12 4 11 5 4 12 10 8 10 9 9 9
10 28 26 21 15 12 14 6 16 -0 4 2 5 0 -0 7 10 11 13 13 13 11 14 17 15 16 13 14 17 16 13 21 10 5 6 8 9 7 10 9 8 8 9
3 49 16 29 14 17 3 6 6 11 13 10 4 6 2 10 12 16 16 18 12 11 10 11 14 11 15 16 15 16 16 5 6 8 7 10 4 12 10 9 8 9 8
6 42 28 18 22 5 4 29 6 13 12 9 13 6 15 13 12 12 10 7 9 15 18 15 16 15 11 10 14 8 7 6 9 6 8 8 12 9 9 9 9 8 7
11 36 25 16 15 20 18 11 9 9 8 5 9 15 11 9 8 7 9 13 17 19 16 13 11 10 10 9 8 8 5 10 8 8 9 10 9 8 9 9 8 8 9
15 40 50 20 33 30 11 7 7 7 9 14 13 11 6 8 11 15 16 16 15 13 9 9 8 7 8 8 6 10 11 8 9 8 9 9 8 9 9 8 8 8 9
25 13 4 6 6 6 7 6 8 12 13 11 10 9 11 14 14 17 19 16 12 9 8 7 7 8 10 4 12 9 8 9 8 9 8 8 10 9 8 8 8 9 9
9 8 18 8 7 11 12 13 13 11 10 10 10 12 13 12 9 9 8 7 7 7 7 8 10 9 11 11 8 9 9 8 8 9 9 9 8 8 8 8 9 10 9
15 5 11 10 11 12 11 11 10 10 10 11 11 10 12 11 11 10 10 8 8 9 11 12 12 11 9 8 9 8 8 9 9 9 8 7 7 8 9 10 9 8 9
4 7 7 9 9 12 13 10 10 10 10 12 11 13 11 12 10 10 10 9 10 11 12 12 10 9 9 8 8 9 8 9 9 8 8 8 7 8 9 9 9 8 10
8 11 10 10 11 7 11 11 10 11 12 14 13 12 11 9 7 9 10 11 12 11 10 9 9 8 8 8 8 8 9 9 7 9 8 8 8 8 9 9 10 11 12
13 10 9 12 12 9 9 10 12 13 12 13 12 11 10 9 11 12 12 11 10 9 8 8 8 8 7 8 8 9 8 7 9 9 9 8 9 8 9 11 13 14 11
Height
2945 2946 2948 2948 2948 2951 2954 2959 2963 2968 2973 2978 2984 2991 2996 3002 3006 3013 3020 3025 3029 3032 3042 3047 3049 3051 3054 3057 3059 3060 3062 3062 3062 3064 3066 3068 3069 3070 3069 3070 3069 3068 3067
2934 2933 2934 2937 2939 2940 2943 2947 2950 2955 2962 2965 2973 2979 2987 2992 2997 3004 3010 3017 3021 3029 3035 3040 3044 3046 3049 3051 3053 3055 3057 3057 3060 3062 3063 3064 3065 3066 3066 3066 3065 3062 3063
2920 2921 2922 2923 2926 2932 2936 2938 2940 2943 2947 2953 2959 2967 2974 2983 2986 2993 3001 3009 3018 3024 3029 3034 3038 3041 3043 3045 3047 3049 3051 3053 3055 3057 3058 3060 3061 3062 3063 3060 3060 3058 3057
2909 2909 2910 2911 2914 2918 2922 2927 2931 2931 2933 2942 2949 2955 2964 2972 2980 2989 2996 3005 3013 3018 3024 3029 3033 3036 3038 3040 3042 3044 3046 3048 3051 3053 3054 3056 3056 3058 3057 3056 3055 3053 3052
2900 2899 2899 2901 2903 2904 2907 2913 2919 2925 2930 2934 2940 2946 2957 2968 2975 2982 2994 3002 3005 3012 3019 3023 3027 3030 3031 3034 3037 3037 3041 3043 3047 3048 3050 3051 3051 3053 3054 3049 3050 3048 3047
2890 2890 2889 2890 2892 2894 2893 2904 2911 2918 2924 2931 2939 2946 2954 2959 2972 2981 2989 2995 3002 3007 3012 3017 3021 3023 3026 3029 3031 3034 3037 3038 3041 3043 3044 3043 3046 3049 3048 3046 3045 3044 3043
2880 2879 2880 2879 2882 2885 2891 2899 2906 2913 2919 2927 2935 2942 2950 2960 2971 2978 2984 2992 2998 3002 3007 3012 3014 3018 3020 3022 3025 3027 3030 3033 3033 3036 3039 3042 3039 3042 3042 3041 3040 3038 3037
2875 2872 2874 2876 2879 2886 2892 2899 2905 2911 2919 2927 2934 2940 2949 2960 2968 2974 2981 2987 2992 2996 3002 3006 3010 3011 3014 3016 3020 3023 3024 3028 3030 3031 3032 3036 3036 3037 3036 3036 3035 3032 3031
2872 2866 2873 2878 2883 2888 2894 2900 2907 2913 2920 2927 2934 2942 2951 2958 2964 2971 2977 2981 2986 2991 2996 3000 3001 3006 3008 3012 3016 3018 3021 3022 3025 3026 3027 3029 3031 3031 3031 3030 3029 3027 3025
2873 2869 2873 2878 2884 2890 2896 2903 2908 2913 2920 2927 2933 2941 2949 2956 2962 2968 2972 2977 2981 2985 2987 2992 2996 3000 3000 3004 3008 3013 3016 3018 3020 3021 3022 3024 3026 3026 3025 3024 3023 3022 3020
2879 2875 2874 2878 2885 2891 2897 2903 2908 2915 2920 2925 2933 2940 2947 2953 2959 2963 2967 2970 2973 2977 2981 2985 2990 2991 2993 2998 3002 3006 3011 3013 3015 3017 3018 3020 3020 3020 3020 3018 3017 3016 3014
2883 2882 2879 2882 2888 2892 2897 2903 2908 2914 2920 2927 2933 2939 2945 2950 2954 2957 2962 2968 2970 2972 2976 2979 2983 2983 2987 2993 2997 3001 3003 3007 3009 3011 3013 3014 3015 3015 3014 3013 3011 3010 3008
2886 2886 2886 2886 2890 2893 2898 2904 2909 2915 2921 2926 2932 2938 2943 2947 2951 2954 2958 2961 2965 2968 2970 2973 2977 2977 2982 2988 2991 2995 2998 3000 3003 3006 3007 3009 3009 3009 3008 3007 3005 3004 3002
2885 2887 2888 2890 2891 2896 2899 2904 2910 2915 2920 2925 2930 2935 2939 2942 2946 2949 2953 2955 2959 2963 2964 2967 2971 2974 2977 2983 2987 2990 2992 2995 2997 2999 3001 3003 3002 3002 3001 3000 2998 2997 2996
2885 2884 2884 2888 2891 2895 2897 2902 2907 2914 2920 2925 2928 2932 2935 2938 2942 2945 2949 2951 2953 2956 2959 2962 2965 2969 2974 2977 2981 2984 2987 2989 2991 2993 2995 2996 2996 2996 2995 2993 2992 2990 2988
2880 2879 2880 2883 2887 2891 2895 2899 2904 2911 2916 2921 2924 2928 2930 2935 2938 2940 2943 2945 2949 2951 2955 2958 2961 2964 2968 2972 2976 2979 2981 2984 2986 2988 2989 2990 2989 2989 2988 2987 2985 2983 2980
2874 2872 2874 2878 2883 2888 2894 2897 2903 2907 2912 2917 2920 2924 2928 2931 2932 2936 2938 2941 2944 2948 2951 2953 2957 2960 2964 2968 2971 2974 2977 2979 2981 2982 2983 2983 2983 2982 2981 2980 2978 2976 2973
2871 2869 2869 2873 2879 2884 2890 2894 2899 2904 2909 2912 2917 2921 2924 2927 2930 2932 2935 2937 2940 2944 2946 2949 2953 2957 2960 2963 2966 2969 2971 2974 2976 2977 2977 2977 2976 2975 2974 2972 2970 2969 2966
2867 2864 2866 2869 2874 2878 2883 2890 2896 2901 2906 2910 2913 2916 2920 2924 2926 2928 2930 2933 2937 2941 2943 2946 2949 2953 2956 2959 2962 2964 2967 2969 2970 2971 2971 2970 2970 2968 2967 2965 2963 2961 2958
2863 2861 2861 2866 2871 2875 2882 2888 2893 2898 2902 2907 2910 2912 2915 2918 2922 2925 2928 2931 2934 2936 2939 2942 2945 2949 2952 2954 2958 2960 2961 2963 2964 2965 2964 2964 2963 2962 2959 2957 2956 2952 2950
2860 2862 2864 2868 2873 2877 2882 2885 2889 2895 2899 2902 2904 2908 2912 2916 2919 2923 2925 2928 2930 2932 2935 2939 2942 2946 2949 2951 2953 2955 2956 2957 2958 2958 2957 2957 2956 2954 2953 2950 2947 2945 2943
2859 2862 2865 2869 2873 2877 2880 2884 2888 2891 2894 2897 2901 2905 2909 2913 2916 2919 2921 2923 2926 2929 2933 2936 2939 2942 2944 2946 2948 2949 2950 2951 2951 2951 2950 2949 2948 2947 2945 2943 2940 2937 2934
2859 2863 2866 2870 2872 2875 2878 2881 2885 2888 2891 2895 2899 2903 2907 2909 2912 2915 2917 2920 2923 2927 2930 2933 2935 2937 2939 2941 2943 2944 2945 2945 2945 2944 2943 2942 2941 2939 2937 2935 2931 2929 2926
2859 2862 2865 2869 2871 2874 2876 2879 2882 2885 2889 2893 2896 2899 2903 2906 2909 2911 2914 2917 2920 2923 2926 2928 2931 2933 2935 2936 2937 2938 2938 2938 2938 2937 2936 2935 2933 2931 2930 2926 2924 2920 2918
2860 2862 2864 2867 2869 2872 2874 2877 2880 2883 2886 2890 2893 2895 2899 2902 2904 2907 2910 2913 2916 2919 2921 2924 2926 2928 2929 2931 2931 2931 2932 2932 2931 2930 2929 2927 2926 2923 2921 2918 2916 2912 2910
2859 2860 2862 2865 2866 2869 2871 2874 2877 2880 2883 2886 2889 2892 2895 2898 2901 2904 2906 2909 2912 2915 2917 2919 2921 2922 2923 2924 2925 2926 2926 2925 2924 2923 2921 2920 2918 2916 2914 2911 2908 2905 2901